TimeCDT,TemperatureF,Dew PointF,Humidity,Sea Level PressureIn,VisibilityMPH,Wind Direction,Wind SpeedMPH,Gust SpeedMPH,PrecipitationIn,Events,Conditions,WindDirDegrees,DateUTC
12:55 AM,48.0,44.1,86,29.87,10.0,ESE,6.9,-,N/A,,Clear,110,2012-10-21 05:55:00
1:55 AM,46.9,43.0,86,29.86,10.0,East,6.9,-,N/A,,Clear,100,2012-10-21 06:55:00
2:55 AM,46.9,43.0,86,29.86,10.0,ESE,6.9,-,N/A,,Clear,120,2012-10-21 07:55:00
3:55 AM,46.0,43.0,89,29.86,10.0,ESE,6.9,-,N/A,,Clear,120,2012-10-21 08:55:00
4:55 AM,46.0,43.0,89,29.86,10.0,SE,6.9,-,N/A,,Clear,140,2012-10-21 09:55:00
5:55 AM,46.0,43.0,89,29.87,10.0,SE,6.9,-,N/A,,Clear,140,2012-10-21 10:55:00
6:55 AM,46.0,43.0,89,29.87,10.0,SE,6.9,-,N/A,,Clear,140,2012-10-21 11:55:00
7:55 AM,45.0,43.0,93,29.88,10.0,SE,5.8,-,N/A,,Clear,140,2012-10-21 12:55:00
8:55 AM,52.0,46.9,83,29.90,10.0,SSE,8.1,-,N/A,,Clear,160,2012-10-21 13:55:00
9:55 AM,59.0,50.0,72,29.91,10.0,SSE,6.9,-,N/A,,Clear,160,2012-10-21 14:55:00
10:55 AM,66.0,52.0,60,29.90,10.0,SSE,5.8,-,N/A,,Clear,160,2012-10-21 15:55:00
11:55 AM,70.0,55.0,59,29.90,10.0,SSE,6.9,-,N/A,,Clear,160,2012-10-21 16:55:00
12:55 PM,73.0,57.9,59,29.88,10.0,SSE,8.1,-,N/A,,Clear,160,2012-10-21 17:55:00
1:55 PM,75.9,60.1,58,29.85,10.0,SE,9.2,-,N/A,,Clear,130,2012-10-21 18:55:00
2:55 PM,77.0,61.0,58,29.84,10.0,SE,13.8,-,N/A,,Clear,130,2012-10-21 19:55:00
3:55 PM,78.1,63.0,60,29.83,10.0,SE,12.7,-,N/A,,Clear,140,2012-10-21 20:55:00
4:55 PM,75.0,63.0,66,29.83,10.0,SE,9.2,-,N/A,,Mostly Cloudy,140,2012-10-21 21:55:00
5:55 PM,73.0,63.0,71,29.84,10.0,SSE,9.2,-,N/A,,Overcast,150,2012-10-21 22:55:00
6:55 PM,72.0,63.0,73,29.85,10.0,SSE,9.2,-,N/A,,Overcast,150,2012-10-21 23:55:00
7:55 PM,71.1,62.1,73,29.86,10.0,SSE,9.2,-,N/A,,Overcast,160,2012-10-22 00:55:00
8:55 PM,71.1,62.1,73,29.87,10.0,SSE,6.9,-,N/A,,Overcast,160,2012-10-22 01:55:00
9:55 PM,70.0,62.1,76,29.87,10.0,ESE,5.8,-,N/A,,Overcast,120,2012-10-22 02:55:00
10:55 PM,69.1,62.1,78,29.87,10.0,SSE,5.8,-,N/A,,Overcast,160,2012-10-22 03:55:00
11:55 PM,68.0,62.1,81,29.87,10.0,SSE,8.1,-,N/A,,Overcast,160,2012-10-22 04:55:00